N6HKD Fairfield CT US current weather conditions

sailwx.info

Wind from 023

Air temperature -0.0° C
Dewpoint -2.2° C

Last reported at 2019-Dec-13 12:01 UTC.
Time now 2019-Dec-13 12:53 UTC

Location: N 41°09' W 073°14'.
View on Google Maps.

See reports from other nearby stations

  
Tides and Currents Weather Stations Pressure Air Temp Water Temp Dewpoint Dewpoint Depression Visibility Wind Speed Wind Dir Waves Ship Positions
date/time (UTC)wind fromknots sea level pressurealtimeterstation pressurevisibilityair tempwater tempwave heightnotes
2019-Dec-13 12:01 023 -0.0
2019-Dec-13 11:46 024 -0.0
2019-Dec-13 11:32 025 -0.0
2019-Dec-13 11:15 024 -0.6
2019-Dec-13 11:02 024 -0.6
2019-Dec-13 10:46 024 -0.6
2019-Dec-13 10:31 025 -1.1
2019-Dec-13 10:16 025 -1.1
2019-Dec-13 10:01 025 -1.1
2019-Dec-13 09:45 028 -1.1
2019-Dec-13 09:30 029 -1.1
2019-Dec-13 09:16 030 -1.1
2019-Dec-13 09:00 037 -1.1
2019-Dec-13 08:45 043 0 gusting 5 -1.1
2019-Dec-13 08:30 051 0 gusting 5 -1.1
2019-Dec-13 08:15 070 -1.1
2019-Dec-13 08:00 091 -1.1
2019-Dec-13 07:45 091 -1.1
2019-Dec-13 07:31 091 -1.1
2019-Dec-13 07:00 095 -1.1
2019-Dec-13 06:45 099 -1.1
2019-Dec-13 06:30 104 -1.1
2019-Dec-13 05:46 153 -1.1
2019-Dec-13 05:32 152 0.6
2019-Dec-13 05:00 164 3 gusting 6 0.6
2019-Dec-13 04:46 158 1 gusting 6 0.6
2019-Dec-13 04:30 151 6 gusting 8 0.6
2019-Dec-13 04:16 163 6 gusting 8 0.6
2019-Dec-13 04:01 174 5 gusting 8 0.6
2019-Dec-13 03:46 181 6 gusting 8 0.6
2019-Dec-13 03:30 168 6 gusting 9 0.6
2019-Dec-13 03:16 170 6 gusting 8 0.6
2019-Dec-13 03:00 188 6 gusting 10 0.6
2019-Dec-13 02:45 197 5 gusting 9 0.6
2019-Dec-13 02:31 189 5 gusting 8 0.6
2019-Dec-13 02:16 180 6 gusting 9 -0.0
2019-Dec-13 02:00 174 5 gusting 7 -0.0
2019-Dec-13 01:46 168 5 gusting 9 -0.0
2019-Dec-13 01:30 191 4 gusting 6 -0.0
2019-Dec-13 01:15 170 5 gusting 8 -0.0
2019-Dec-13 01:00 186 6 gusting 12 -0.0
2019-Dec-13 00:45 168 5 gusting 8 -0.0
2019-Dec-13 00:30 176 3 gusting 6 -0.0
2019-Dec-13 00:15 180 -0.0
2019-Dec-13 00:01 183 -0.6
2019-Dec-12 23:45 183 -0.6
2019-Dec-12 23:30 183 -0.6
2019-Dec-12 23:15 183 -0.6
2019-Dec-12 23:00 183 -0.6
2019-Dec-12 22:45 183 -0.6
2019-Dec-12 22:30 181 -0.6
2019-Dec-12 22:16 181 -0.6
2019-Dec-12 22:00 180 -0.6
2019-Dec-12 21:45 176 -0.6
2019-Dec-12 21:30 175 -0.6
2019-Dec-12 21:15 172 -0.0
2019-Dec-12 21:00 172 -0.0
2019-Dec-12 20:45 196 -0.0
2019-Dec-12 20:30 191 -0.0
2019-Dec-12 20:15 148 -0.0
2019-Dec-12 20:00 148 0.6
2019-Dec-12 19:45 116 0 gusting 3 0.6
2019-Dec-12 19:30 042 0.6
2019-Dec-12 19:15 009 0.6
2019-Dec-12 19:00 012 0.6
2019-Dec-12 18:45 338 0 gusting 4 -0.0
2019-Dec-12 18:30 027 0.6
2019-Dec-12 18:18 340 -0.0
2019-Dec-12 18:03 305 -0.0
2019-Dec-12 17:47 018 2 gusting 7 -0.6
2019-Dec-12 17:34 018 0 gusting 6 -0.0
2019-Dec-12 17:18 343 2 gusting 6 -0.6
2019-Dec-12 17:02 070 1 gusting 8 -0.6
2019-Dec-12 16:48 359 4 gusting 7 -0.6
2019-Dec-12 16:31 326 1 gusting 8 -1.1
2019-Dec-12 16:18 031 0 gusting 6 -1.7
2019-Dec-12 16:03 354 -1.7
2019-Dec-12 15:47 337 0 gusting 6 -1.7
2019-Dec-12 15:32 341 0 gusting 5 -1.7
2019-Dec-12 15:16 331 -2.2
2019-Dec-12 15:02 305 -2.8
2019-Dec-12 14:48 305 -2.8
2019-Dec-12 14:32 308 0 gusting 7 -3.3
2019-Dec-12 14:17 292 4 gusting 8 -3.3
2019-Dec-12 14:02 320 5 gusting 8 -3.9
2019-Dec-12 13:46 297 4 gusting 11 -3.9
2019-Dec-12 13:31 314 4 gusting 8 -4.4
2019-Dec-12 13:15 312 0 gusting 3 -4.4
2019-Dec-12 13:02 301 -5.0
2019-Dec-12 12:46 292 2 gusting 5 -5.0
2019-Dec-12 12:31 291 1 gusting 5 -5.0
2019-Dec-12 12:15 298 2 gusting 6 -5.0
2019-Dec-12 12:01 313 1 gusting 5 -5.0
2019-Dec-12 11:46 310 -5.0
2019-Dec-12 11:31 300 5 gusting 8 -5.0
2019-Dec-12 11:16 295 -5.0
2019-Dec-12 11:01 295 -5.0
2019-Dec-12 10:46 294 -5.0
2019-Dec-12 10:30 294 0 gusting 2 -4.4
2019-Dec-12 10:15 295 0 gusting 4 -4.4
2019-Dec-12 10:00 295 1 gusting 4 -4.4
2019-Dec-12 09:45 305 -4.4
2019-Dec-12 09:30 305 -3.9
2019-Dec-12 09:15 305 0 gusting 3 -3.9
2019-Dec-12 09:00 314 -3.3
2019-Dec-12 08:47 347 -3.3
2019-Dec-12 08:31 328 3 gusting 6 -3.3
2019-Dec-12 08:18 322 -2.8
2019-Dec-12 08:01 308 0 gusting 7 -2.8
2019-Dec-12 07:47 316 3 gusting 8 -2.8
2019-Dec-12 07:31 311 3 gusting 6 -2.2
2019-Dec-12 07:18 309 1 gusting 6 -2.2
2019-Dec-12 07:01 305 4 gusting 7 -2.2
2019-Dec-12 06:47 330 1 gusting 8 -1.7
2019-Dec-12 06:31 322 4 gusting 9 -1.7
2019-Dec-12 06:15 278 2 gusting 9 -1.7
2019-Dec-12 06:01 294 3 gusting 9 -1.7
2019-Dec-12 05:45 305 6 gusting 18 -1.1
2019-Dec-12 05:31 311 8 gusting 16 -1.1
2019-Dec-12 05:16 286 1 gusting 6 -1.1
2019-Dec-12 05:00 274 6 gusting 13 -1.1
2019-Dec-12 04:45 303 5 gusting 10 -1.1
2019-Dec-12 04:30 290 -1.1
2019-Dec-12 04:15 231 0 gusting 6 -1.1
2019-Dec-12 04:00 284 0 gusting 8 -1.1
2019-Dec-12 03:45 295 0 gusting 7 -1.1
2019-Dec-12 03:30 296 0 gusting 6 -0.6
2019-Dec-12 03:17 278 2 gusting 6 -0.6
2019-Dec-12 03:02 289 2 gusting 9 -0.6
2019-Dec-12 02:46 279 4 gusting 10 -0.6
2019-Dec-12 02:31 293 2 gusting 10 -0.0
2019-Dec-12 02:17 293 7 gusting 14 -0.0
2019-Dec-12 02:01 282 3 gusting 11 -0.0
2019-Dec-12 01:47 271 3 gusting 8 -0.0
2019-Dec-12 01:31 285 4 gusting 10 -0.0
2019-Dec-12 01:17 239 2 gusting 8 0.6
2019-Dec-12 01:04 275 2 gusting 8 0.6
2019-Dec-12 00:46 249 4 gusting 9 0.6
2019-Dec-12 00:31 257 2 gusting 9 0.6
2019-Dec-12 00:16 259 1 gusting 8 1.1
2019-Dec-12 00:02 246 2 gusting 8 1.1
2019-Dec-11 23:45 247 3 gusting 10 1.1
2019-Dec-11 23:31 252 3 gusting 6 1.1
2019-Dec-11 23:16 240 1 gusting 6 0.6
2019-Dec-11 23:01 279 3 gusting 6 0.6
2019-Dec-11 22:46 258 0.6
2019-Dec-11 22:30 274 0.6
2019-Dec-11 22:16 290 0.6
2019-Dec-11 22:01 291 0.6
2019-Dec-11 21:46 291 0.6
2019-Dec-11 21:31 280 1.1
2019-Dec-11 21:16 266 0.6
2019-Dec-11 21:01 264 1.1
2019-Dec-11 20:46 249 1.1
2019-Dec-11 20:32 258 1.1
2019-Dec-11 20:16 248 1.1
2019-Dec-11 20:01 239 0 gusting 6 1.1
2019-Dec-11 19:46 252 1 gusting 5 1.1
2019-Dec-11 19:31 207 1.1
2019-Dec-11 19:16 226 0.6
2019-Dec-11 19:01 208 1.1
2019-Dec-11 18:45 233 0 gusting 4 0.6
2019-Dec-11 18:31 273 0 gusting 4 0.6
2019-Dec-11 18:16 209 -0.0
2019-Dec-11 18:00 297 -0.0
2019-Dec-11 17:46 307 1 gusting 5 -0.6
2019-Dec-11 17:30 269 -0.6
2019-Dec-11 17:15 268 -0.6
2019-Dec-11 17:01 268 -0.6
2019-Dec-11 16:46 268 -1.1
2019-Dec-11 16:30 004 -1.1
2019-Dec-11 16:16 035 -1.1
2019-Dec-11 16:01 039 -1.7
2019-Dec-11 15:45 041 -1.7
2019-Dec-11 15:30 040 -1.7
2019-Dec-11 15:15 040 -1.7
2019-Dec-11 15:01 044 -1.7
2019-Dec-11 14:46 029 -1.7
2019-Dec-11 14:32 019 -1.7
2019-Dec-11 14:15 027 -1.7
2019-Dec-11 14:01 018 -1.1
2019-Dec-11 13:45 018 -1.1
2019-Dec-11 13:31 018 -1.1
2019-Dec-11 13:15 016 -1.1
2019-Dec-11 13:00 035 -1.1
2019-Dec-11 12:45 035 -1.7
2019-Dec-11 12:30 035 -1.7
2019-Dec-11 12:15 041 -1.1
2019-Dec-11 12:00 064 -1.1